| time (UTC) | temp C | wind direction | speed KPH | gust KPH | rain 1hr cm | rain 24hr cm | rain mn cm | humidity % | barometer mb |
| 20260503010049 | 3 | 279 | 9.7 | 19.3 | 0.00 | 0.00 | 0.00 | 46 | 1013.1 |
| 20260503004544 | 3 | 292 | 8.0 | 20.9 | 0.00 | 0.00 | 0.00 | 38 | 1013.3 |
| 20260503003042 | 3 | 290 | 8.0 | 19.3 | 0.00 | 0.00 | 0.00 | 37 | 1013.4 |
| 20260503001535 | 3 | 246 | 11.3 | 20.9 | 0.00 | 0.00 | 0.00 | 32 | 1013.4 |
| 20260503000031 | 4 | 281 | 17.7 | 25.7 | 0.00 | 0.00 | 0.00 | 13 | 1013.3 |
| 20260502234532 | 5 | 296 | 20.9 | 30.6 | 0.00 | 0.00 | 0.00 | 10 | 1013.2 |
| 20260502233022 | 5 | 293 | 19.3 | 24.1 | 0.00 | 0.00 | 0.00 | 11 | 1013.3 |
| 20260502231522 | 5 | 289 | 17.7 | 24.1 | 0.00 | 0.00 | 0.00 | 13 | 1013.1 |
| 20260502230013 | 5 | 277 | 12.9 | 19.3 | 0.00 | 0.00 | 0.00 | 18 | 1013.2 |
| 20260502224508 | 5 | 272 | 9.7 | 19.3 | 0.00 | 0.00 | 0.00 | 20 | 1013.1 |
| 20260502223004 | 5 | 286 | 17.7 | 24.1 | 0.00 | 0.00 | 0.00 | 16 | 1013.2 |
| 20260502221559 | 5 | 270 | 16.1 | 22.5 | 0.00 | 0.00 | 0.00 | 18 | 1013.2 |
| 20260502214551 | 6 | 275 | 16.1 | 20.9 | 0.00 | 0.00 | 0.00 | 28 | 1013.4 |
| 20260502213049 | 6 | 283 | 16.1 | 30.6 | 0.00 | 0.00 | 0.00 | 29 | 1013.4 |
| 20260502211541 | 6 | 286 | 22.5 | 30.6 | 0.00 | 0.00 | 0.00 | 34 | 1013.4 |
| 20260502210040 | 6 | 245 | 8.0 | 30.6 | 0.00 | 0.00 | 0.00 | 46 | 1013.4 |
| 20260502204532 | 6 | 278 | 17.7 | 29.0 | 0.00 | 0.00 | 0.00 | 53 | 1013.3 |
| 20260502203030 | 6 | 255 | 9.7 | 20.9 | 0.00 | 0.00 | 0.00 | 57 | 1013.5 |
| 20260502201534 | 6 | 287 | 8.0 | 19.3 | 0.00 | 0.00 | 0.00 | 58 | 1013.9 |
| 20260502200019 | 7 | 264 | 11.3 | 24.1 | 0.00 | 0.00 | 0.00 | 61 | 1014.0 |
| 20260502194514 | 7 | 265 | 8.0 | 20.9 | 0.00 | 0.00 | 0.00 | 60 | 1014.1 |
| 20260502193010 | 6 | 284 | 6.4 | 16.1 | 0.00 | 0.00 | 0.00 | 60 | 1014.3 |
| 20260502191506 | 6 | 286 | 11.3 | 30.6 | 0.00 | 0.00 | 0.00 | 59 | 1014.5 |
| 20260502190000 | 6 | 294 | 19.3 | 27.4 | 0.00 | 0.00 | 0.00 | 60 | 1014.7 |
| 20260502184603 | 7 | 286 | 20.9 | 32.2 | 0.00 | 0.00 | 0.00 | 62 | 1014.7 |
| 20260502183055 | 7 | 288 | 22.5 | 37.0 | 0.00 | 0.00 | 0.00 | 63 | 1014.7 |
| 20260502181550 | 7 | 279 | 14.5 | 30.6 | 0.00 | 0.00 | 0.00 | 63 | 1014.6 |
| 20260502163017 | 8 | 211 | 8.0 | 20.9 | 0.00 | 0.00 | 0.00 | 63 | 1015.7 |
| 20260502161512 | 8 | 155 | 1.6 | 22.5 | 0.00 | 0.00 | 0.00 | 63 | 1015.9 |
| 20260502151612 | 9 | 194 | 8.0 | 22.5 | 0.00 | 0.00 | 0.00 | 62 | 1016.7 |
| 20260502123005 | 6 | 244 | 9.7 | 20.9 | 0.00 | 0.00 | 0.00 | 64 | 1019.4 |
| 20260502121503 | 6 | 270 | 6.4 | 17.7 | 0.00 | 0.00 | 0.00 | 64 | 1019.5 |
| 20260502114554 | 6 | 273 | 4.8 | 17.7 | 0.00 | 0.00 | 0.00 | 63 | 1019.5 |
| 20260502113058 | 6 | 271 | 4.8 | 14.5 | 0.00 | 0.00 | 0.00 | 63 | 1019.7 |
| 20260502111544 | 6 | 254 | 6.4 | 16.1 | 0.00 | 0.00 | 0.00 | 62 | 1019.9 |
| 20260502110043 | 6 | 194 | 3.2 | 22.5 | 0.00 | 0.00 | 0.00 | 63 | 1020.0 |
| 20260502104538 | 5 | 209 | 6.4 | 24.1 | 0.00 | 0.00 | 0.00 | 64 | 1020.0 |
| 20260502103031 | 3 | 5 | 0.0 | 4.8 | 0.00 | 0.00 | 0.00 | 63 | 1020.2 |
| 20260502101527 | 3 | 13 | 0.0 | 1.6 | 0.00 | 0.00 | 0.00 | 65 | 1020.5 |
| 20260502091515 | 5 | 29 | 3.2 | 4.8 | 0.00 | 0.00 | 0.00 | 63 | 1020.8 |
| 20260502071533 | 0 | 28 | 4.8 | 8.0 | 0.00 | 0.00 | 0.00 | 17 | 1021.3 |
| 20260502070050 | 0 | 30 | 0.0 | 3.2 | 0.00 | 0.00 | 0.00 | 7 | 1021.4 |
| 20260502064524 | -2 | 32 | 0.0 | 1.6 | 0.00 | 0.00 | 0.00 | 15 | 1021.4 |
| 20260502063026 | -3 | 36 | 0.0 | 0.0 | 0.00 | 0.00 | 0.00 | 31 | 1021.3 |
| 20260502061517 | -2 | 36 | 0.0 | 0.0 | 0.00 | 0.00 | 0.00 | 35 | 1021.2 |
| 20260502060025 | -2 | 36 | 0.0 | 3.2 | 0.00 | 0.00 | 0.00 | 32 | 1021.3 |
| 20260502054507 | -2 | 36 | 3.2 | 8.0 | 0.00 | 0.00 | 0.00 | 30 | 1021.5 |
| 20260502053003 | -1 | 34 | 4.8 | 14.5 | 0.00 | 0.00 | 0.00 | 27 | 1021.5 |
| 20260502051603 | 0 | 344 | 9.7 | 14.5 | 0.00 | 0.00 | 0.00 | 18 | 1021.6 |
| 20260502050053 | 0 | 329 | 11.3 | 16.1 | 0.00 | 0.00 | 0.00 | 22 | 1021.7 |
| 20260502044549 | 0 | 326 | 9.7 | 16.1 | 0.00 | 0.00 | 0.00 | 27 | 1021.7 |
| 20260502043058 | 0 | 305 | 16.1 | 19.3 | 0.00 | 0.00 | 0.00 | 30 | 1021.6 |
| 20260502041605 | 0 | 316 | 17.7 | 22.5 | 0.00 | 0.00 | 0.00 | 19 | 1021.5 |
| 20260502040049 | 0 | 327 | 17.7 | 20.9 | 0.00 | 0.00 | 0.00 | 4 | 1021.5 |
| 20260502034530 | -1 | 321 | 14.5 | 17.7 | 0.00 | 0.00 | 0.00 | 7 | 1021.6 |
| 20260502033032 | -2 | 318 | 6.4 | 9.7 | 0.00 | 0.00 | 0.00 | 23 | 1021.7 |
| 20260502031521 | -2 | 295 | 1.6 | 6.4 | 0.00 | 0.00 | 0.00 | 24 | 1021.7 |
| 20260502030019 | -2 | 5 | 0.0 | 4.8 | 0.00 | 0.00 | 0.00 | 25 | 1021.8 |
| 20260502024515 | -2 | 5 | 0.0 | 8.0 | 0.00 | 0.00 | 0.00 | 24 | 1021.7 |
| 20260502023023 | -2 | 11 | 4.8 | 8.0 | 0.00 | 0.00 | 0.00 | 17 | 1021.7 |
| 20260502021507 | -2 | 17 | 1.6 | 4.8 | 0.00 | 0.00 | 0.00 | 21 | 1021.7 |
| 20260502020003 | -3 | 26 | 4.8 | 6.4 | 0.00 | 0.00 | 0.00 | 31 | 1021.8 |
| 20260502014607 | -3 | 38 | 0.0 | 0.0 | 0.00 | 0.00 | 0.00 | 37 | 1021.7 |
| 20260502013101 | -2 | 40 | 0.0 | 3.2 | 0.00 | 0.00 | 0.00 | 44 | 1021.8 |
| 20260502011605 | -2 | 40 | 0.0 | 0.0 | 0.00 | 0.00 | 0.00 | 49 | 1021.8 |